KC1HBM Weather Reports


Display with metric or nautical units.
time (UTC)temp
F
wind
direction
speed
MPH
gust
MPH
rain 1hr
in
rain 24hr
in
rain mn
in
humidity
%
barometer
mb
20260831210439 68 305 1.0 1.0 0.00 0.00 0.00 69 1016.1
20260831205934 68 306 2.0 2.0 0.00 0.00 0.00 67 1016.4
20260831205430 68 301 0.0 1.0 0.00 0.00 0.00 63 1016.2
20260831204925 68 308 1.0 2.0 0.00 0.00 0.00 60 1016.2
20260831204425 68 304 1.0 2.0 0.00 0.00 0.00 62 1016.3
20260831203924 69 278 1.0 2.0 0.00 0.00 0.00 61 1016.5
20260831203418 69 316 1.0 1.0 0.00 0.00 0.00 62 1016.5
20260831202916 69 312 0.0 1.0 0.00 0.00 0.00 63 1016.2
20260831202412 69 328 1.0 1.0 0.00 0.00 0.00 61 1016.2
20260831201906 69 33 2.0 3.0 0.00 0.00 0.00 60 1016.3
20260831201404 69 310 0.0 0.0 0.00 0.00 0.00 59 1016.3
20260831200901 68 330 1.0 1.0 0.00 0.00 0.00 58 1016.3
20260831200355 69 303 0.0 0.0 0.00 0.00 0.00 61 1016.2
20260831195850 69 303 1.0 1.0 0.00 0.00 0.00 62 1016.2
20260831195346 69 301 2.0 2.0 0.00 0.00 0.00 62 1016.4
20260831194842 69 308 1.0 2.0 0.00 0.00 0.00 62 1016.4
20260831194337 69 319 2.0 3.0 0.00 0.00 0.00 64 1016.5
20260831193836 69 311 2.0 2.0 0.00 0.00 0.00 63 1016.6
20260831193331 69 326 2.0 2.0 0.00 0.00 0.00 60 1016.7
20260831192826 69 303 1.0 2.0 0.00 0.00 0.00 59 1016.9
20260831192321 69 314 0.0 1.0 0.00 0.00 0.00 59 1016.8
20260831191817 71 292 1.0 2.0 0.00 0.00 0.00 56 1016.6
20260831191313 70 310 0.0 0.0 0.00 0.00 0.00 55 1016.5
20260831190809 71 307 3.0 5.0 0.00 0.00 0.00 54 1016.8
20260831190308 71 308 0.0 0.0 0.00 0.00 0.00 59 1016.7
20260831185808 71 315 0.0 1.0 0.00 0.00 0.00 55 1016.5
20260831185306 70 310 2.0 2.0 0.00 0.00 0.00 59 1016.8
20260831184802 70 303 1.0 1.0 0.00 0.00 0.00 59 1016.7
20260831184258 71 300 1.0 2.0 0.00 0.00 0.00 60 1016.7
20260831183753 71 317 0.0 1.0 0.00 0.00 0.00 60 1016.8
20260831183252 71 309 1.0 1.0 0.00 0.00 0.00 59 1016.8
20260831182752 71 292 2.0 2.0 0.00 0.00 0.00 59 1016.9
20260831182247 71 7 3.0 3.0 0.00 0.00 0.00 57 1016.9
20260831181742 71 307 1.0 1.0 0.00 0.00 0.00 61 1016.8
20260831181238 71 307 1.0 2.0 0.00 0.00 0.00 60 1016.8
20260831180737 71 302 2.0 2.0 0.00 0.00 0.00 60 1017.0
20260831180232 71 306 1.0 1.0 0.00 0.00 0.00 57 1017.1
20260831175731 72 300 2.0 3.0 0.00 0.00 0.00 58 1017.2
20260831175228 72 306 1.0 1.0 0.00 0.00 0.00 55 1017.1
20260831174723 72 308 2.0 2.0 0.00 0.00 0.00 54 1017.1
20260831174219 74 312 0.0 1.0 0.00 0.00 0.00 53 1017.1
20260831173717 73 298 2.0 2.0 0.00 0.00 0.00 54 1017.2
20260831173212 74 304 2.0 2.0 0.00 0.00 0.00 53 1017.0
20260831172707 73 310 1.0 1.0 0.00 0.00 0.00 58 1017.2
20260831172202 73 300 1.0 1.0 0.00 0.00 0.00 56 1017.1
20260831171657 74 286 3.0 3.0 0.00 0.00 0.00 57 1017.1
20260831171154 74 302 1.0 1.0 0.00 0.00 0.00 54 1017.2
20260831170650 75 302 2.0 3.0 0.00 0.00 0.00 52 1017.1
20260831170147 75 314 0.0 1.0 0.00 0.00 0.00 51 1017.2
20260831165643 75 313 0.0 0.0 0.00 0.00 0.00 53 1017.3
20260831165139 75 307 1.0 1.0 0.00 0.00 0.00 55 1017.3
20260831164635 76 312 0.0 0.0 0.00 0.00 0.00 51 1017.6
20260831164130 77 288 2.0 2.0 0.00 0.00 0.00 45 1017.4
20260831163625 77 312 2.0 3.0 0.00 0.00 0.00 42 1017.7
20260831163121 76 318 0.0 0.0 0.00 0.00 0.00 44 1017.7
20260831162620 75 312 0.0 0.0 0.00 0.00 0.00 43 1017.6
20260831162118 76 311 0.0 0.0 0.00 0.00 0.00 43 1017.7
20260831161614 77 319 0.0 0.0 0.00 0.00 0.00 42 1017.8
20260831161110 78 312 1.0 1.0 0.00 0.00 0.00 43 1017.7
20260831160609 77 313 0.0 1.0 0.00 0.00 0.00 48 1017.4
20260831160105 77 309 0.0 1.0 0.00 0.00 0.00 45 1017.7
20260831155559 77 312 0.0 1.0 0.00 0.00 0.00 42 1017.7
20260831155054 77 312 1.0 2.0 0.00 0.00 0.00 41 1017.6
20260831154545 76 312 0.0 0.0 0.00 0.00 0.00 45 1017.6
20260831154044 76 313 0.0 1.0 0.00 0.00 0.00 44 1017.8
20260831153538 75 321 0.0 0.0 0.00 0.00 0.00 45 1017.7
20260831153036 75 319 1.0 2.0 0.00 0.00 0.00 46 1017.7
20260831152531 76 315 0.0 0.0 0.00 0.00 0.00 46 1018.1
20260831152027 76 307 1.0 1.0 0.00 0.00 0.00 46 1017.9
20260831151526 74 313 0.0 0.0 0.00 0.00 0.00 48 1017.9
20260831151026 75 313 0.0 1.0 0.00 0.00 0.00 46 1018.2
20260831150521 75 314 1.0 1.0 0.00 0.00 0.00 46 1018.2
20260831150017 75 312 0.0 1.0 0.00 0.00 0.00 49 1018.0
20260831145511 75 308 1.0 1.0 0.00 0.00 0.00 46 1018.0
20260831145007 75 311 0.0 1.0 0.00 0.00 0.00 45 1018.4
20260831144503 75 312 0.0 0.0 0.00 0.00 0.00 46 1018.3
20260831143958 74 312 0.0 1.0 0.00 0.00 0.00 47 1018.5
20260831143452 73 315 0.0 0.0 0.00 0.00 0.00 49 1018.5
20260831142948 73 308 1.0 2.0 0.00 0.00 0.00 49 1018.5
20260831142444 74 312 0.0 1.0 0.00 0.00 0.00 47 1018.5
20260831141938 74 310 0.0 0.0 0.00 0.00 0.00 48 1018.3
20260831141438 72 310 0.0 0.0 0.00 0.00 0.00 48 1018.3
20260831140933 73 315 0.0 0.0 0.00 0.00 0.00 49 1018.2
20260831140427 72 313 0.0 0.0 0.00 0.00 0.00 49 1018.4
20260831135926 73 311 0.0 1.0 0.00 0.00 0.00 50 1018.3
20260831135426 72 313 0.0 0.0 0.00 0.00 0.00 50 1018.4
20260831134921 72 328 1.0 1.0 0.00 0.00 0.00 52 1018.5
20260831134418 73 313 0.0 0.0 0.00 0.00 0.00 51 1018.5
20260831133917 74 311 0.0 0.0 0.00 0.00 0.00 50 1018.3
20260831133412 73 311 0.0 1.0 0.00 0.00 0.00 52 1018.2
20260831132907 72 313 0.0 1.0 0.00 0.00 0.00 55 1018.4
20260831132402 71 311 0.0 0.0 0.00 0.00 0.00 57 1018.2
20260831131902 70 310 1.0 1.0 0.00 0.00 0.00 55 1018.3
20260831131357 69 310 1.0 1.0 0.00 0.00 0.00 57 1018.3
20260831130853 69 311 0.0 0.0 0.00 0.00 0.00 58 1018.1
20260831130348 68 311 0.0 0.0 0.00 0.00 0.00 59 1018.0
20260831125847 68 316 0.0 1.0 0.00 0.00 0.00 59 1018.4
20260831125342 68 310 0.0 1.0 0.00 0.00 0.00 62 1018.3
20260831124837 69 311 0.0 0.0 0.00 0.00 0.00 61 1018.0
20260831124333 70 310 0.0 0.0 0.00 0.00 0.00 61 1018.1
20260831123832 70 316 0.0 0.0 0.00 0.00 0.00 61 1018.1
20260831123326 69 312 0.0 0.0 0.00 0.00 0.00 63 1018.0
20260831122821 69 310 0.0 0.0 0.00 0.00 0.00 63 1017.8
20260831122317 70 311 0.0 0.0 0.00 0.00 0.00 65 1017.8
20260831121817 69 312 0.0 0.0 0.00 0.00 0.00 65 1017.9
20260831121313 68 313 0.0 0.0 0.00 0.00 0.00 67 1018.0
20260831120808 69 318 0.0 0.0 0.00 0.00 0.00 66 1017.7
20260831120302 71 312 0.0 0.0 0.00 0.00 0.00 65 1017.9
20260831115757 71 312 0.0 0.0 0.00 0.00 0.00 66 1017.8
20260831115254 69 312 0.0 0.0 0.00 0.00 0.00 66 1017.9
20260831114752 68 312 0.0 0.0 0.00 0.00 0.00 70 1017.9
20260831114247 70 314 0.0 0.0 0.00 0.00 0.00 67 1018.0
20260831113742 68 313 0.0 0.0 0.00 0.00 0.00 68 1018.0
20260831113237 67 313 0.0 0.0 0.00 0.00 0.00 72 1018.1
20260831112736 67 312 0.0 0.0 0.00 0.00 0.00 73 1018.0
20260831112231 66 301 0.0 0.0 0.00 0.00 0.00 73 1017.8
20260831111727 66 311 0.0 0.0 0.00 0.00 0.00 75 1017.8
20260831111223 67 311 0.0 0.0 0.00 0.00 0.00 74 1017.7
20260831110713 67 311 0.0 0.0 0.00 0.00 0.00 72 1017.8
20260831110208 65 311 0.0 0.0 0.00 0.00 0.00 77 1017.7
20260831105706 62 311 0.0 0.0 0.00 0.00 0.00 83 1017.4
20260831105202 59 313 0.0 0.0 0.00 0.00 0.00 89 1017.6
20260831104657 58 314 0.0 0.0 0.00 0.00 0.00 94 1017.5
20260831104154 57 311 0.0 0.0 0.00 0.00 0.00 95 1017.3
20260831103654 55 314 0.0 0.0 0.00 0.00 0.00 96 1017.3
20260831103149 55 311 0.0 0.0 0.00 0.00 0.00 96 1017.0
20260831102649 55 311 0.0 0.0 0.00 0.00 0.00 96 1017.3
20260831102144 55 311 0.0 0.0 0.00 0.00 0.00 96 1017.2
20260831101639 55 314 0.0 0.0 0.00 0.00 0.00 95 1017.4
20260831101135 55 315 0.0 0.0 0.00 0.00 0.00 95 1017.2
20260831100631 55 314 0.0 0.0 0.00 0.00 0.00 95 1017.1
20260831100127 55 313 0.0 0.0 0.00 0.00 0.00 94 1017.3
20260831095625 55 311 0.0 0.0 0.00 0.00 0.00 94 1017.0
20260831095120 56 311 0.0 0.0 0.00 0.00 0.00 93 1016.8
20260831094615 56 311 0.0 0.0 0.00 0.00 0.00 93 1017.1
20260831094112 56 314 0.0 0.0 0.00 0.00 0.00 93 1017.0
20260831093607 56 314 0.0 0.0 0.00 0.00 0.00 92 1017.0
20260831093103 57 314 0.0 0.0 0.00 0.00 0.00 92 1017.0
20260831092559 57 314 0.0 0.0 0.00 0.00 0.00 91 1016.8
20260831092054 57 314 0.0 0.0 0.00 0.00 0.00 90 1016.6
20260831091553 57 312 0.0 0.0 0.00 0.00 0.00 90 1016.7
20260831091049 58 314 0.0 0.0 0.00 0.00 0.00 89 1016.8
20260831090544 58 314 0.0 0.0 0.00 0.00 0.00 89 1016.6
20260831090040 58 313 0.0 0.0 0.00 0.00 0.00 88 1016.5
20260831085535 58 314 0.0 0.0 0.00 0.00 0.00 88 1016.5
20260831085031 58 311 0.0 0.0 0.00 0.00 0.00 88 1016.4
20260831084527 59 310 0.0 0.0 0.00 0.00 0.00 88 1016.3
20260831084023 59 313 0.0 0.0 0.00 0.00 0.00 88 1016.1
20260831083518 59 313 0.0 0.0 0.00 0.00 0.00 88 1016.2
20260831083018 59 311 0.0 0.0 0.00 0.00 0.00 88 1016.0
20260831082512 59 312 0.0 0.0 0.00 0.00 0.00 87 1016.0
20260831082007 59 312 0.0 0.0 0.00 0.00 0.00 87 1015.8
20260831081503 59 311 0.0 0.0 0.00 0.00 0.00 87 1015.8
20260831080958 59 312 0.0 0.0 0.00 0.00 0.00 87 1015.7
20260831080453 59 318 0.0 0.0 0.00 0.00 0.00 87 1015.8
20260831075948 59 319 0.0 0.0 0.00 0.00 0.00 87 1015.7
20260831075443 59 329 1.0 1.0 0.00 0.00 0.00 87 1015.6
20260831074939 59 320 0.0 1.0 0.00 0.00 0.00 87 1015.7
20260831074433 60 309 0.0 0.0 0.00 0.00 0.00 87 1015.8
20260831073932 60 315 0.0 1.0 0.00 0.00 0.00 87 1015.7
20260831073427 60 315 0.0 0.0 0.00 0.00 0.00 87 1015.8
20260831072921 60 319 1.0 1.0 0.00 0.00 0.00 87 1015.7
20260831072417 60 314 0.0 0.0 0.00 0.00 0.00 87 1015.6
20260831071914 60 316 0.0 0.0 0.00 0.00 0.00 88 1015.8
20260831071412 60 311 0.0 0.0 0.00 0.00 0.00 88 1015.7
20260831070907 60 311 0.0 0.0 0.00 0.00 0.00 88 1015.5
20260831070406 60 308 0.0 0.0 0.00 0.00 0.00 89 1015.6
20260831065905 60 311 0.0 0.0 0.00 0.00 0.00 89 1015.4
20260831065404 60 314 0.0 0.0 0.00 0.00 0.00 91 1015.7
20260831064859 59 313 0.0 0.0 0.00 0.00 0.00 92 1015.6
20260831064354 60 311 0.0 0.0 0.00 0.00 0.00 92 1015.5
20260831063850 60 311 0.0 0.0 0.00 0.00 0.00 92 1015.5
20260831063344 60 316 0.0 0.0 0.00 0.00 0.00 92 1015.5
20260831062844 60 307 0.0 0.0 0.00 0.00 0.00 91 1015.6
20260831062340 60 311 0.0 0.0 0.00 0.00 0.00 91 1015.4
20260831061838 60 311 0.0 0.0 0.00 0.00 0.00 90 1015.4
20260831061337 60 311 0.0 0.0 0.00 0.00 0.00 90 1015.3
20260831060834 60 316 0.0 0.0 0.00 0.00 0.00 90 1015.1
20260831060328 60 311 0.0 0.0 0.00 0.00 0.00 90 1015.1
20260831055828 60 311 0.0 0.0 0.00 0.00 0.00 89 1015.2
20260831055323 60 311 0.0 0.0 0.00 0.00 0.00 90 1015.2
20260831054818 60 311 0.0 0.0 0.00 0.00 0.00 90 1015.1
20260831054313 60 312 0.0 0.0 0.00 0.00 0.00 91 1014.9
20260831053812 60 311 0.0 0.0 0.00 0.00 0.00 92 1015.0
20260831053311 60 312 0.0 0.0 0.00 0.00 0.00 93 1015.0
20260831052806 60 311 0.0 0.0 0.00 0.00 0.00 93 1014.9
20260831052307 60 311 0.0 0.0 0.00 0.00 0.00 92 1014.7
20260831051803 60 311 0.0 0.0 0.00 0.00 0.00 92 1014.4
20260831051302 60 311 0.0 0.0 0.00 0.00 0.00 92 1014.6
20260831050757 60 311 0.0 0.0 0.00 0.00 0.00 92 1014.5
20260831050256 61 311 0.0 0.0 0.00 0.00 0.00 91 1014.7
20260831045745 61 311 0.0 0.0 0.00 0.00 0.00 91 1014.6
20260831045245 61 311 0.0 0.0 0.00 0.00 0.00 90 1014.6
20260831044739 61 311 0.0 0.0 0.00 0.00 0.00 90 1014.6
20260831044234 61 311 0.0 0.0 0.00 0.00 0.00 89 1014.7
20260831043730 62 311 0.0 0.0 0.00 0.00 0.00 89 1014.6
20260831043225 62 311 0.0 0.0 0.00 0.00 0.00 88 1014.6
20260831042725 62 311 0.0 0.0 0.00 0.00 0.00 87 1014.6
20260831042220 62 311 0.0 0.0 0.00 0.00 0.00 87 1014.8
20260831041715 63 311 0.0 0.0 0.00 0.00 0.00 87 1014.8
20260831041214 63 311 0.0 0.0 0.00 0.00 0.00 87 1014.5
20260831040709 63 309 0.0 0.0 0.00 0.00 0.00 86 1014.7
20260831040209 64 314 0.0 0.0 0.00 0.00 0.00 84 1014.6
20260831035707 64 315 0.0 0.0 0.00 0.00 0.00 85 1014.5
20260831035202 64 314 0.0 0.0 0.00 0.00 0.00 85 1014.4
20260831034701 64 311 0.0 0.0 0.00 0.00 0.00 86 1014.5
20260831034156 64 311 0.0 0.0 0.00 0.00 0.00 86 1014.7
20260831033652 64 311 0.0 0.0 0.00 0.00 0.00 86 1014.5
20260831033146 64 316 0.0 0.0 0.00 0.00 0.00 85 1014.3
20260831032646 64 311 0.0 0.0 0.00 0.00 0.00 84 1014.1
20260831032142 64 312 0.0 0.0 0.00 0.00 0.00 83 1014.3
20260831031641 65 311 0.0 0.0 0.00 0.00 0.00 83 1014.4
20260831031136 65 311 0.0 0.0 0.00 0.00 0.00 83 1014.4
20260831030634 65 316 0.0 0.0 0.00 0.00 0.00 83 1014.5
20260831030134 66 315 0.0 0.0 0.00 0.00 0.00 82 1014.5
20260831025632 66 271 1.0 2.0 0.00 0.00 0.00 80 1014.6
20260831025127 66 311 0.0 0.0 0.00 0.00 0.00 78 1014.8
20260831024624 67 311 0.0 0.0 0.00 0.00 0.00 76 1014.8
20260831024122 67 336 0.0 0.0 0.00 0.00 0.00 74 1014.8
20260831023621 68 313 1.0 2.0 0.00 0.00 0.00 72 1014.8
20260831023120 68 303 1.0 2.0 0.00 0.00 0.00 72 1014.7
20260831022615 68 319 0.0 1.0 0.00 0.00 0.00 73 1014.6
20260831022110 69 313 1.0 2.0 0.00 0.00 0.00 75 1014.6
20260831021609 70 315 1.0 1.0 0.00 0.00 0.00 70 1014.2
20260831021105 70 305 1.0 1.0 0.00 0.00 0.00 70 1014.3
20260831020601 71 311 0.0 0.0 0.00 0.00 0.00 75 1014.0
20260831020055 71 310 0.0 0.0 0.00 0.00 0.00 75 1013.8
20260831015551 71 310 0.0 0.0 0.00 0.00 0.00 74 1013.5
20260831015045 71 310 0.0 0.0 0.00 0.00 0.00 74 1013.4
20260831014540 71 310 0.0 0.0 0.00 0.00 0.00 74 1013.5
20260831014036 71 310 0.0 0.0 0.00 0.00 0.00 74 1013.4
20260831013532 71 310 0.0 0.0 0.00 0.00 0.00 74 1013.2
20260831013026 71 310 0.0 0.0 0.00 0.00 0.00 74 1013.2
20260831012521 71 312 0.0 0.0 0.00 0.00 0.00 74 1013.0
20260831012021 71 313 0.0 0.0 0.00 0.00 0.00 75 1013.0
20260831011515 71 313 0.0 0.0 0.00 0.00 0.00 74 1012.8
20260831011010 71 313 0.0 0.0 0.00 0.00 0.00 73 1013.0
20260831010505 71 313 0.0 0.0 0.00 0.00 0.00 72 1012.9
20260831010001 71 313 0.0 0.0 0.00 0.00 0.00 72 1012.8
20260831005456 71 313 0.0 0.0 0.00 0.00 0.00 72 1012.9
20260831004955 72 313 0.0 0.0 0.00 0.00 0.00 71 1012.8
20260831004453 72 313 0.0 0.0 0.00 0.00 0.00 72 1012.7
20260831003948 71 313 0.0 0.0 0.00 0.00 0.00 71 1012.8
20260831003444 72 313 0.0 0.0 0.00 0.00 0.00 71 1012.6
20260831002943 72 313 0.0 0.0 0.00 0.00 0.00 72 1012.5
20260831002442 71 312 0.0 0.0 0.00 0.00 0.00 72 1012.6
20260831001938 71 311 0.0 0.0 0.00 0.00 0.00 73 1012.8
20260831001433 71 311 0.0 0.0 0.00 0.00 0.00 74 1012.6
20260831000930 71 311 0.0 0.0 0.00 0.00 0.00 75 1012.5
20260831000426 71 311 0.0 0.0 0.00 0.00 0.00 74 1012.5
20260830235924 71 311 0.0 0.0 0.00 0.00 0.00 75 1012.2
20260830235419 71 311 0.0 0.0 0.00 0.00 0.00 74 1012.3
20260830234914 71 311 0.0 0.0 0.00 0.00 0.00 74 1012.4
20260830234409 72 311 0.0 0.0 0.00 0.00 0.00 74 1012.3
20260830233905 72 311 0.0 0.0 0.00 0.00 0.00 74 1012.4
20260830233400 72 311 0.0 0.0 0.00 0.00 0.00 73 1012.3
20260830232856 73 312 0.0 0.0 0.00 0.00 0.00 73 1012.1
20260830232351 73 311 0.0 0.0 0.00 0.00 0.00 71 1012.2
20260830231848 73 309 0.0 0.0 0.00 0.00 0.00 71 1012.3
20260830231343 73 309 0.0 0.0 0.00 0.00 0.00 70 1012.2
20260830230842 73 309 0.0 0.0 0.00 0.00 0.00 70 1012.4
20260830230338 73 309 0.0 0.0 0.00 0.00 0.00 70 1012.4
20260830225837 73 309 0.0 0.0 0.00 0.00 0.00 70 1012.4
20260830225332 73 309 0.0 0.0 0.00 0.00 0.00 70 1012.4
20260830224827 73 309 0.0 0.0 0.00 0.00 0.00 69 1012.2
20260830224321 74 309 0.0 0.0 0.00 0.00 0.00 69 1012.3
20260830223818 74 309 0.0 0.0 0.00 0.00 0.00 69 1012.3
20260830223314 74 310 0.0 0.0 0.00 0.00 0.00 69 1012.3
20260830222808 74 311 0.0 0.0 0.00 0.00 0.00 68 1012.3
20260830222306 74 322 1.0 2.0 0.00 0.00 0.00 67 1012.5
20260830221758 75 317 1.0 1.0 0.00 0.00 0.00 66 1012.5
20260830221256 75 314 0.0 0.0 0.00 0.00 0.00 66 1012.6
20260830220756 75 312 0.0 1.0 0.00 0.00 0.00 65 1012.3
20260830220255 75 317 0.0 0.0 0.00 0.00 0.00 65 1012.6
20260830215753 75 310 0.0 0.0 0.00 0.00 0.00 65 1012.7
20260830215248 75 311 0.0 0.0 0.00 0.00 0.00 65 1012.7
20260830214743 75 312 0.0 0.0 0.00 0.00 0.00 65 1012.5
20260830214243 75 311 1.0 1.0 0.00 0.00 0.00 65 1012.6
20260830213742 75 319 0.0 1.0 0.00 0.00 0.00 64 1012.6
20260830213237 75 309 0.0 1.0 0.00 0.00 0.00 65 1012.6
20260830212734 75 307 0.0 1.0 0.00 0.00 0.00 66 1012.8
20260830212229 75 325 1.0 1.0 0.00 0.00 0.00 65 1012.9
20260830211729 75 306 1.0 1.0 0.00 0.00 0.00 66 1012.7
20260830211228 76 304 1.0 1.0 0.00 0.00 0.00 66 1012.6